Wind_Speed
80 81 82 83 83 84 84 84 84 84 84 84 85 85 86 85 85 84 84 84 85 86 87 88 88 89 89 90 91 91 92 92 92 92 93 93 93 93 92 92 91 91 90 90 90 89 89 88 89 89 89 89
83 84 85 85 86 86 86 86 87 87 87 87 87 87 87 87 86 86 85 85 86 87 87 88 89 89 90 91 92 93 93 94 94 94 94 94 94 94 94 93 93 93 93 93 93 93 92 92 92 93 93 93
86 87 87 88 88 88 88 88 88 88 88 88 88 88 89 88 88 87 87 87 87 88 88 89 89 90 90 91 92 93 94 95 95 95 95 95 95 95 95 95 95 96 96 97 97 96 96 96 97 97 96 95
87 88 89 89 89 90 90 90 89 89 89 89 89 89 89 90 90 90 89 89 90 90 91 91 91 92 92 93 94 95 96 96 97 97 97 97 97 98 98 98 98 99 99 100 100 100 100 101 101 100 99 97
89 89 90 90 90 91 92 92 92 92 93 93 93 92 92 92 91 91 91 92 92 93 93 94 95 95 96 96 97 98 99 99 100 100 100 100 101 101 102 102 103 103 104 104 104 104 104 104 103 102 101 100
92 92 92 93 93 94 95 95 96 96 96 97 97 97 97 97 96 95 95 95 95 95 96 97 98 99 100 100 101 102 103 103 104 104 105 105 105 106 106 107 107 108 108 108 107 107 106 105 105 104 103 102
95 96 96 96 97 97 98 99 99 100 100 100 100 101 101 101 101 101 101 101 100 100 100 101 101 102 102 103 104 105 106 107 108 109 109 110 110 110 111 111 111 111 111 111 110 109 109 108 107 106 105 104
98 98 99 99 100 101 102 102 103 104 104 105 105 105 105 105 105 106 106 106 107 107 107 107 107 107 107 107 108 108 109 110 110 111 112 112 113 113 113 114 114 114 114 113 112 112 111 110 109 108 107 106
99 100 100 101 102 103 103 104 105 106 107 107 108 108 108 108 109 109 109 110 110 110 111 111 111 112 112 113 113 113 113 113 114 114 114 114 114 114 115 115 115 115 115 115 115 114 114 113 111 110 109 109
101 102 102 103 104 105 105 106 107 108 108 109 109 109 110 110 110 111 111 111 112 112 113 113 114 114 115 116 116 117 117 118 118 118 118 118 118 118 118 117 117 117 117 117 117 116 116 115 114 113 112 112
104 105 105 105 106 106 107 108 109 110 111 112 112 113 113 113 113 113 114 114 114 115 115 116 117 117 118 118 119 119 120 120 121 121 121 121 122 122 121 121 120 120 119 119 118 118 118 117 117 116 116 115
108 108 109 109 110 110 110 111 112 113 114 115 116 116 117 117 117 118 118 118 118 119 119 120 120 121 122 122 122 123 123 123 123 124 124 124 124 124 124 124 124 123 123 122 121 121 120 120 119 119 119 118
111 111 112 113 114 114 115 115 116 117 118 119 120 121 121 121 121 122 122 122 122 123 123 123 123 124 125 126 126 127 127 127 127 127 127 127 127 127 127 127 127 126 126 126 125 124 124 123 123 122 122 121
114 115 116 116 117 118 119 119 120 120 121 122 123 124 125 125 126 126 126 126 127 127 127 127 127 127 128 128 129 130 130 130 130 130 130 130 129 129 129 129 129 129 128 128 128 127 127 127 126 126 125 124
117 118 119 119 120 121 122 123 123 124 125 125 126 126 127 128 128 129 129 130 130 130 131 131 131 131 131 131 131 132 132 132 132 132 132 132 131 131 131 131 131 130 130 130 130 130 130 130 129 129 128 127
120 121 121 122 123 124 125 126 127 128 128 129 130 130 131 131 131 132 132 133 133 133 133 134 134 134 134 134 135 135 135 135 135 134 134 134 134 133 133 133 133 133 132 132 132 132 131 131 131 131 130 130
125 125 126 127 127 128 129 130 131 131 132 133 133 134 135 135 136 136 137 137 137 137 137 137 137 137 138 138 138 138 138 138 138 138 138 137 137 137 136 136 136 136 135 135 135 134 134 134 133 133 133 132
130 130 131 132 132 133 133 134 135 135 136 136 137 138 139 139 140 141 141 142 142 142 142 142 142 142 142 142 142 142 142 142 142 142 142 142 141 141 141 140 140 140 139 139 139 138 138 137 137 137 136 136
133 134 135 135 136 137 138 138 139 139 140 140 141 141 142 142 143 144 145 145 146 146 147 147 147 147 147 147 147 147 147 147 147 147 147 146 146 146 145 145 145 145 144 144 143 143 143 142 141 141 140 140
135 136 137 138 139 140 141 141 142 143 144 144 145 145 145 146 147 147 148 148 149 149 150 150 151 151 151 151 152 152 152 152 151 151 151 151 151 150 150 150 149 149 148 148 147 147 147 146 146 145 144 144
137 138 139 140 141 141 142 143 144 145 146 147 148 148 149 149 150 150 151 151 152 152 152 153 153 154 154 154 155 155 155 155 155 155 154 154 154 154 153 153 153 153 152 152 151 151 150 150 149 149 148 147
140 141 142 143 144 145 145 146 147 148 149 150 151 152 152 153 153 154 154 154 155 155 155 156 156 156 156 157 157 157 158 158 158 158 157 157 157 157 157 156 156 156 155 155 154 154 153 153 153 152 151 151
141 142 144 145 146 147 148 150 151 152 153 154 155 156 156 157 157 158 158 158 158 159 159 159 159 159 160 160 160 160 160 160 160 160 159 159 159 160 159 159 159 158 158 157 156 156 156 156 155 155 155 154
138 139 141 142 143 145 147 148 150 151 153 154 155 157 158 159 160 160 161 162 162 163 163 163 164 164 164 164 164 164 164 164 163 163 162 162 161 161 161 161 161 160 160 159 158 158 157 157 157 157 157 156
132 134 135 136 138 139 141 143 144 146 148 149 151 152 154 156 157 159 160 161 162 164 165 166 166 167 168 168 168 169 169 169 168 168 167 167 166 165 165 165 165 164 163 162 161 160 160 159 159 159 158 158
128 130 131 132 133 135 136 138 140 141 142 144 145 147 148 150 152 154 155 157 158 160 161 163 165 166 168 169 170 171 172 172 172 172 172 172 171 171 170 170 170 169 168 166 165 164 164 164 163 163 162 161
125 126 128 129 131 132 134 135 137 138 139 141 142 143 145 146 148 149 150 152 153 154 156 158 159 161 163 165 166 168 170 171 172 173 173 174 174 174 174 174 174 174 173 172 170 169 168 168 168 168 168 167
119 120 122 123 125 127 128 131 132 134 135 137 139 140 142 143 145 146 147 148 149 150 152 153 155 156 158 160 161 163 164 166 167 168 170 171 172 173 174 175 175 176 176 176 175 174 173 172 172 172 172 172
112 114 115 117 118 120 122 124 126 127 129 131 132 134 136 138 140 142 143 144 145 147 148 149 151 153 155 156 158 159 160 161 162 163 165 166 167 168 170 171 173 174 175 176 176 176 175 175 174 174 175 176
106 108 109 111 113 115 117 119 120 122 123 125 127 129 130 132 134 136 138 139 140 141 143 144 146 148 150 152 154 155 157 158 159 161 162 163 163 164 165 166 167 169 171 173 174 174 174 174 174 174 175 176
100 102 103 105 107 109 111 113 115 116 118 120 121 123 125 127 129 131 133 134 134 135 136 138 139 142 144 146 148 150 152 154 156 158 159 160 161 162 163 163 164 165 167 169 170 171 171 171 172 172 173 174
Wind_Direction
252 252 252 252 252 252 252 251 251 251 250 251 251 251 251 251 250 250 250 250 250 250 250 250 251 251 252 252 253 253 254 254 255 255 255 255 256 256 255 256 256 256 256 257 257 256 256 256 256 257 258 259
252 252 253 253 253 254 254 254 254 253 253 253 253 253 253 253 252 252 251 251 251 251 251 251 251 252 252 252 252 253 253 254 254 254 255 255 255 255 255 255 255 256 256 256 256 256 256 256 256 257 258 259
255 255 255 255 255 256 256 256 256 256 256 256 256 255 255 255 254 253 253 252 252 253 253 252 252 252 252 252 252 252 252 253 253 253 254 254 254 254 254 254 254 254 254 255 255 255 255 256 256 257 258 259
257 257 257 257 257 258 258 257 256 256 255 255 255 255 256 256 256 256 255 254 253 253 253 253 253 252 252 252 252 252 252 252 252 252 252 252 253 253 253 253 253 253 253 254 255 256 256 257 257 258 259 259
257 257 258 258 258 258 258 258 257 256 255 254 253 253 254 254 255 256 257 257 256 255 254 254 253 252 252 252 252 251 251 252 252 252 252 252 252 253 253 253 254 254 255 255 256 257 258 258 259 259 259 259
256 256 257 257 257 257 257 257 257 256 255 255 254 253 253 253 253 254 254 255 256 256 256 256 255 254 254 253 253 252 252 252 252 252 253 253 253 253 254 255 255 256 257 258 258 259 259 259 260 260 260 259
256 256 256 256 256 256 256 257 256 256 256 255 255 254 253 253 253 253 253 253 254 254 254 255 255 255 255 255 254 254 254 254 253 254 254 254 254 255 255 256 257 258 258 259 259 259 259 259 260 260 260 260
258 257 257 256 256 256 256 256 256 256 256 256 256 255 255 254 254 254 254 254 254 254 254 254 254 254 255 255 255 255 254 254 254 254 254 255 255 256 256 256 257 258 258 258 258 258 258 258 259 259 259 260
259 259 259 258 258 257 257 257 257 257 257 257 257 257 256 256 256 255 255 255 256 256 255 255 255 255 255 255 255 255 255 255 255 255 255 255 255 256 256 256 256 257 257 258 258 258 258 258 258 258 259 259
261 261 260 260 259 259 259 258 258 258 258 258 258 258 258 258 257 257 257 257 257 257 256 256 256 256 256 256 256 256 256 256 256 256 256 256 256 256 256 257 257 257 257 257 258 258 258 258 258 259 259 260
262 262 262 261 261 261 260 260 259 259 259 259 259 259 259 259 258 258 258 258 258 257 257 257 257 257 257 256 256 256 256 257 257 257 257 257 257 257 257 257 257 257 257 257 257 258 258 259 259 259 260 260
263 263 263 263 263 262 262 261 261 260 260 260 260 260 259 259 259 258 258 258 258 258 258 258 258 257 257 257 257 257 256 256 257 257 257 257 257 257 257 257 258 258 258 258 258 258 259 259 259 260 260 260
263 263 263 263 263 263 263 262 262 261 261 261 261 261 261 260 260 259 259 258 258 258 258 258 258 258 258 258 258 258 257 257 257 257 257 258 258 258 258 257 257 258 258 258 258 258 259 259 259 260 260 260
262 262 263 263 263 263 263 263 263 262 262 262 262 261 261 261 261 260 260 259 259 259 258 258 258 258 258 258 258 258 258 258 258 258 258 258 258 259 259 258 258 258 258 258 258 259 259 259 260 260 260 260
263 263 263 263 263 263 263 263 263 263 263 263 263 262 262 262 262 261 261 261 260 260 259 259 259 259 259 259 258 258 259 259 259 259 259 258 258 259 259 259 259 259 259 259 259 259 259 260 260 260 260 260
264 264 264 264 264 264 264 264 264 264 264 264 264 263 263 263 263 263 262 262 262 261 261 260 260 259 259 259 259 259 259 259 259 259 259 259 259 258 258 259 259 259 259 259 259 259 259 259 259 259 259 260
264 264 264 264 265 265 265 265 265 265 265 265 264 264 264 264 263 263 263 263 263 262 262 262 261 261 260 260 260 260 260 259 259 259 259 259 259 259 259 259 259 259 259 259 259 259 259 259 259 259 259 259
265 264 264 264 264 264 265 265 265 265 265 265 265 265 264 264 264 264 263 263 263 263 262 262 262 262 261 261 261 261 260 260 260 260 260 259 259 259 259 259 259 259 259 259 259 259 259 259 259 259 260 260
266 265 265 265 265 264 264 264 264 264 265 265 265 265 265 265 264 264 264 264 263 263 263 262 262 262 261 261 261 261 261 261 261 260 260 260 260 260 260 260 260 259 259 259 260 260 260 260 260 259 260 260
267 267 266 266 266 265 265 265 265 265 264 264 264 264 264 264 264 264 264 264 264 264 263 263 263 262 262 262 261 261 261 261 260 260 260 260 260 260 260 260 260 260 260 260 260 260 260 260 260 260 260 260
267 267 267 266 266 266 265 265 265 265 265 265 264 264 264 264 264 263 263 263 263 263 263 263 263 263 263 262 262 261 261 261 260 260 260 260 260 260 260 260 260 260 260 260 260 260 260 260 260 260 259 259
267 267 267 266 266 266 265 265 265 265 265 264 264 264 264 264 263 263 263 263 263 263 263 263 263 262 262 262 262 262 261 261 261 260 260 260 260 260 260 260 260 260 260 259 260 260 260 260 260 259 259 259
268 268 267 267 266 266 266 265 265 265 264 264 264 264 264 263 263 263 263 262 262 262 262 262 262 262 262 262 262 262 261 261 261 261 260 260 260 260 259 259 259 259 259 259 259 259 259 259 259 259 259 259
270 269 269 268 268 267 267 266 266 265 265 265 265 264 264 264 263 263 262 262 262 262 262 261 261 261 261 261 261 261 261 261 261 260 260 260 260 260 259 259 259 259 259 259 259 259 259 259 259 259 259 259
271 270 270 270 269 269 268 268 267 267 266 266 265 265 265 264 264 263 263 263 262 262 262 261 261 261 261 261 260 261 260 260 260 260 260 260 259 259 259 259 259 259 258 258 258 258 258 258 258 258 258 258
272 272 271 271 271 270 270 269 268 268 267 267 266 266 265 265 265 264 264 263 263 263 262 262 262 261 261 261 260 260 260 260 260 260 260 260 259 259 259 259 259 258 258 258 258 258 258 258 258 258 258 258
273 273 273 272 272 271 271 271 270 270 269 268 268 267 267 266 265 265 264 264 263 263 263 263 262 262 261 261 261 260 260 260 260 260 260 259 259 259 259 259 259 258 258 258 257 257 257 258 258 258 258 257
274 274 273 273 273 272 272 271 271 270 270 270 269 269 268 268 267 266 266 265 264 264 263 263 263 262 262 262 261 261 260 260 260 259 259 259 259 259 259 259 259 258 258 258 257 257 257 257 257 257 258 258
276 276 275 275 274 274 273 273 272 272 271 271 270 270 269 269 268 268 267 266 266 265 264 264 263 263 262 262 262 262 261 261 260 260 259 259 259 258 258 258 258 258 258 258 257 257 257 256 256 256 257 257
277 276 276 276 275 275 274 274 274 273 273 272 272 271 271 270 269 269 268 267 266 266 265 265 264 263 263 262 262 262 261 261 261 260 260 260 259 259 258 258 258 258 258 258 257 257 257 256 256 256 256 256
279 279 278 278 277 277 276 276 275 274 274 273 272 272 271 271 271 270 269 269 268 267 266 265 265 264 263 263 262 262 261 261 261 260 260 260 259 259 258 258 257 257 257 257 257 257 256 256 256 256 255 255
Height
10726 10725 10725 10725 10725 10726 10727 10727 10728 10728 10728 10728 10727 10726 10726 10727 10728 10730 10731 10731 10731 10731 10730 10730 10730 10731 10732 10732 10732 10732 10732 10733 10734 10735 10735 10736 10737 10738 10739 10741 10741 10741 10742 10743 10744 10746 10748 10749 10750 10751 10752 10753
10718 10717 10716 10716 10716 10717 10718 10718 10719 10719 10719 10719 10718 10718 10718 10718 10719 10720 10721 10722 10722 10721 10721 10721 10722 10722 10723 10723 10724 10723 10723 10724 10725 10726 10726 10726 10727 10728 10729 10731 10732 10732 10733 10734 10735 10737 10738 10740 10741 10742 10743 10744
10710 10709 10709 10709 10709 10709 10709 10710 10710 10710 10710 10710 10710 10709 10709 10709 10710 10711 10712 10713 10712 10712 10713 10713 10713 10713 10714 10714 10714 10714 10714 10714 10714 10715 10716 10716 10717 10718 10718 10720 10722 10723 10723 10724 10725 10727 10729 10730 10731 10733 10734 10735
10702 10702 10702 10703 10703 10702 10701 10701 10701 10702 10701 10701 10701 10701 10700 10701 10701 10703 10704 10704 10704 10704 10704 10704 10704 10704 10705 10705 10705 10705 10704 10704 10704 10705 10706 10707 10707 10708 10709 10710 10712 10713 10714 10714 10715 10717 10718 10720 10721 10723 10724 10726
10694 10694 10694 10695 10695 10693 10692 10692 10692 10692 10692 10691 10692 10692 10692 10692 10693 10694 10695 10695 10695 10696 10695 10695 10695 10695 10695 10695 10695 10695 10695 10694 10695 10695 10696 10697 10698 10698 10699 10700 10702 10703 10704 10705 10706 10707 10708 10709 10711 10712 10714 10715
10684 10684 10684 10685 10685 10684 10682 10681 10681 10681 10681 10681 10682 10682 10683 10683 10684 10686 10686 10687 10687 10687 10686 10686 10685 10685 10685 10685 10684 10684 10684 10684 10685 10685 10686 10687 10688 10688 10689 10690 10691 10692 10693 10695 10696 10697 10698 10698 10700 10701 10703 10705
10674 10674 10674 10675 10674 10674 10672 10671 10671 10670 10670 10670 10671 10672 10673 10673 10674 10675 10676 10676 10676 10676 10676 10675 10675 10674 10673 10673 10673 10673 10673 10673 10674 10674 10675 10675 10676 10677 10678 10679 10680 10681 10682 10683 10684 10686 10687 10688 10689 10690 10691 10693
10663 10663 10663 10663 10663 10663 10662 10660 10660 10659 10659 10659 10659 10660 10661 10662 10662 10663 10664 10664 10664 10664 10663 10663 10663 10662 10662 10661 10661 10661 10661 10661 10662 10663 10663 10664 10664 10665 10667 10668 10669 10669 10670 10672 10673 10674 10675 10677 10679 10679 10680 10681
10653 10652 10652 10652 10652 10651 10650 10649 10648 10647 10646 10646 10646 10647 10648 10649 10650 10650 10651 10651 10651 10651 10650 10650 10650 10650 10649 10649 10648 10648 10648 10648 10649 10650 10651 10652 10652 10653 10654 10655 10657 10658 10658 10659 10660 10662 10663 10665 10667 10669 10670 10670
10642 10641 10641 10640 10640 10639 10639 10638 10636 10634 10633 10633 10633 10633 10634 10635 10636 10636 10637 10637 10637 10637 10637 10637 10636 10636 10636 10636 10635 10635 10634 10634 10635 10636 10637 10638 10639 10640 10641 10642 10644 10646 10646 10647 10648 10649 10651 10652 10654 10656 10658 10660
10630 10629 10629 10628 10627 10627 10626 10625 10624 10622 10621 10620 10620 10620 10621 10621 10622 10623 10623 10623 10623 10623 10623 10623 10622 10622 10622 10621 10622 10622 10621 10621 10621 10621 10623 10624 10625 10626 10627 10629 10630 10632 10633 10634 10635 10636 10637 10639 10641 10643 10645 10647
10620 10618 10617 10616 10615 10615 10614 10613 10612 10610 10609 10608 10607 10607 10607 10608 10608 10609 10609 10610 10610 10610 10610 10609 10609 10608 10608 10607 10607 10608 10608 10608 10608 10608 10609 10610 10611 10613 10614 10615 10617 10618 10619 10620 10622 10623 10624 10626 10628 10629 10631 10633
10609 10608 10606 10604 10603 10601 10601 10600 10599 10598 10596 10595 10594 10593 10593 10593 10593 10594 10595 10595 10595 10595 10595 10596 10596 10595 10594 10594 10593 10593 10594 10595 10595 10595 10596 10596 10597 10598 10600 10601 10603 10605 10605 10606 10608 10609 10610 10611 10614 10616 10617 10619
10598 10596 10594 10592 10590 10588 10586 10585 10585 10584 10583 10581 10580 10579 10579 10578 10578 10578 10579 10579 10579 10580 10580 10581 10581 10581 10580 10579 10579 10578 10579 10580 10581 10581 10582 10583 10584 10584 10585 10587 10588 10591 10592 10592 10593 10595 10597 10597 10599 10601 10603 10605
10585 10583 10581 10579 10576 10574 10572 10570 10569 10568 10567 10566 10565 10564 10564 10563 10562 10562 10562 10562 10562 10563 10564 10564 10565 10565 10564 10563 10563 10563 10563 10564 10565 10566 10567 10568 10570 10570 10571 10571 10572 10575 10577 10578 10579 10581 10582 10583 10585 10587 10589 10590
10571 10569 10567 10565 10562 10559 10557 10555 10554 10552 10551 10550 10549 10548 10547 10546 10546 10545 10544 10544 10544 10545 10545 10546 10547 10548 10547 10547 10546 10546 10547 10547 10548 10549 10550 10552 10553 10555 10556 10557 10557 10558 10560 10562 10563 10566 10567 10568 10570 10572 10574 10576
10556 10554 10552 10550 10547 10544 10542 10539 10538 10536 10534 10533 10531 10530 10529 10529 10528 10527 10526 10526 10525 10526 10526 10527 10528 10528 10528 10528 10528 10528 10529 10529 10530 10531 10533 10534 10536 10537 10539 10540 10541 10542 10543 10545 10546 10548 10551 10553 10554 10555 10557 10559
10539 10537 10536 10534 10531 10529 10526 10523 10521 10519 10517 10516 10514 10512 10511 10510 10509 10508 10508 10507 10506 10506 10507 10507 10508 10508 10509 10509 10509 10509 10509 10511 10511 10512 10514 10515 10517 10518 10520 10521 10522 10524 10526 10527 10528 10530 10532 10535 10537 10539 10541 10543
10521 10519 10518 10516 10514 10512 10509 10506 10504 10502 10500 10498 10497 10495 10493 10491 10490 10489 10488 10488 10487 10486 10486 10487 10487 10487 10488 10488 10489 10489 10489 10491 10492 10493 10494 10495 10497 10499 10500 10502 10503 10504 10507 10509 10510 10512 10513 10516 10518 10521 10523 10525
10503 10501 10499 10498 10496 10494 10491 10489 10486 10484 10482 10480 10478 10476 10474 10473 10471 10469 10469 10468 10467 10467 10465 10466 10466 10466 10466 10467 10468 10468 10469 10470 10472 10473 10474 10475 10477 10479 10480 10481 10483 10485 10487 10489 10491 10492 10494 10496 10498 10502 10505 10506
10484 10482 10480 10479 10477 10475 10473 10470 10468 10465 10462 10460 10458 10456 10455 10453 10451 10450 10449 10448 10447 10446 10445 10444 10445 10444 10444 10445 10445 10446 10446 10448 10450 10452 10454 10454 10455 10458 10460 10461 10462 10464 10467 10470 10472 10473 10474 10476 10479 10482 10485 10486
10465 10462 10460 10458 10456 10454 10452 10450 10448 10445 10442 10440 10438 10436 10434 10432 10430 10429 10428 10427 10426 10425 10424 10423 10423 10423 10422 10422 10422 10422 10423 10424 10427 10430 10433 10434 10434 10435 10438 10440 10441 10443 10446 10449 10452 10453 10454 10455 10458 10461 10463 10465
10444 10442 10440 10437 10435 10432 10431 10428 10425 10423 10421 10418 10416 10413 10412 10410 10409 10407 10407 10406 10404 10403 10402 10401 10401 10401 10400 10399 10399 10399 10399 10400 10402 10405 10409 10412 10413 10412 10414 10417 10419 10421 10425 10428 10431 10433 10434 10436 10437 10439 10441 10444
10423 10421 10418 10416 10413 10410 10407 10405 10402 10400 10397 10396 10393 10390 10388 10387 10385 10384 10384 10383 10382 10380 10379 10378 10378 10378 10377 10376 10376 10376 10376 10377 10378 10381 10384 10387 10389 10390 10390 10392 10396 10399 10403 10407 10409 10411 10414 10416 10416 10417 10419 10422
10403 10401 10397 10394 10392 10388 10385 10382 10379 10376 10374 10372 10370 10367 10365 10363 10361 10360 10360 10359 10358 10356 10355 10355 10354 10354 10353 10353 10352 10352 10352 10353 10354 10356 10359 10361 10364 10366 10368 10368 10369 10374 10380 10384 10387 10389 10392 10394 10394 10396 10398 10400
10384 10381 10377 10374 10371 10367 10363 10359 10356 10353 10351 10349 10347 10344 10342 10339 10337 10336 10335 10334 10333 10332 10331 10331 10329 10328 10328 10328 10327 10327 10327 10328 10330 10331 10334 10336 10338 10340 10343 10344 10344 10348 10354 10359 10363 10367 10370 10371 10370 10373 10376 10379
10364 10361 10357 10354 10350 10346 10342 10337 10334 10331 10328 10326 10324 10321 10319 10316 10314 10312 10312 10311 10309 10309 10308 10307 10305 10303 10302 10302 10302 10302 10302 10303 10305 10307 10308 10310 10312 10315 10317 10318 10319 10321 10325 10331 10338 10343 10346 10348 10347 10348 10352 10356
10345 10342 10338 10334 10330 10326 10321 10316 10312 10309 10307 10304 10301 10297 10294 10292 10289 10288 10287 10287 10286 10286 10285 10283 10281 10280 10278 10277 10276 10276 10277 10278 10280 10281 10283 10284 10287 10290 10291 10292 10293 10294 10296 10302 10310 10315 10320 10325 10326 10325 10326 10330
10328 10324 10320 10315 10311 10306 10301 10297 10293 10290 10286 10282 10279 10276 10272 10269 10266 10263 10262 10262 10262 10261 10260 10259 10258 10257 10254 10252 10251 10251 10252 10253 10254 10255 10256 10258 10261 10264 10266 10268 10269 10268 10268 10272 10279 10285 10291 10298 10301 10304 10305 10305
10312 10308 10303 10298 10293 10288 10283 10278 10273 10270 10267 10262 10259 10255 10251 10247 10244 10240 10237 10237 10238 10237 10236 10235 10234 10232 10230 10228 10227 10227 10228 10228 10229 10229 10229 10231 10234 10237 10240 10243 10246 10244 10242 10244 10249 10256 10263 10268 10272 10278 10283 10282
10296 10291 10287 10282 10277 10271 10265 10260 10255 10251 10247 10243 10239 10234 10230 10226 10222 10218 10215 10213 10214 10213 10212 10212 10210 10208 10205 10204 10203 10203 10204 10204 10204 10204 10204 10204 10207 10210 10213 10216 10220 10221 10221 10219 10220 10226 10235 10241 10244 10251 10256 10257